Lake Charles Regional, LA

1:07 AM CDT on July 26, 2017 (GMT -0500)
Lake Charles Regional

Weather History for KLCH - March, 2013

Change the Weather History Date:

Thursday, March 28, 2013

  Actual Average Record
Temperature  
Mean Temperature 58 °F 64 °F  
Max Temperature 72 °F 74 °F 87 °F (1910)
Min Temperature 43 °F 54 °F 30 °F (1913)
Degree Days  
Heating Degree Days 7 3  
Month to date heating degree days 211 153  
Since 1 July heating degree days 1180 1435  
Cooling Degree Days 0 2  
Month to date cooling degree days 27 43  
Year to date cooling degree days 57 66  
Growing Degree Days 8 (Base 50)    
Moisture  
Dew Point 48 °F    
Average Humidity 70    
Maximum Humidity 93    
Minimum Humidity 47    
Precipitation  
Precipitation 0.00 in 0.12 in 2.72 in (1992)
Month to date precipitation 1.27 3.32  
Year to date precipitation 17.86 12.01  
Snow  
Snow 0.00 in 0.00 in 0.00 in ()
Month to date snowfall 0.0 0.0  
Since 1 July snowfall 0.0 0.1  
Snow Depth 0.00 in    
Sea Level Pressure  
Sea Level Pressure 30.30 in    
Wind  
Wind Speed 5 mph (SE)    
Max Wind Speed 14 mph    
Max Gust Speed 20 mph    
Visibility 10 miles    
Events      
T = Trace of Precipitation, MM = Missing Value Source: NWS Daily Summary

Daily Weather History Graph

Daily Weather History Graph

Search for Another Location

Airport or City:

Trip Planner

Search our weather history database for the weather conditions in past years. The results will help you decide how hot, cold, wet, or windy it might be!

Date:

Astronomy

Mar. 28, 2013 Rise Set
Actual Time 7:06 AM CDT 7:29 PM CDT
Civil Twilight 6:42 AM CDT 7:53 PM CDT
Nautical Twilight 6:14 AM CDT 8:21 PM CDT
Astronomical Twilight 5:46 AM CDT 8:50 PM CDT
Moon 9:10 PM CDT (3/28) 7:43 AM CDT (3/28)
Length of Visible Light 13h 10m
Length of Day
12h 22m
Full, 98% of the Moon is Illuminated
Mar 28
Full
Apr 2
Last Quarter
Apr 10
New
Apr 18
First Quarter
Apr 25
Full

Hourly Weather History & Observations

Time (CDT) Temp. Windchill Dew Point Humidity Pressure Visibility Wind Dir Wind Speed Gust Speed Precip Events Conditions
12:53 AM 44.1 °F - 39.0 °F 82% 30.32 in 10.0 mi Calm Calm - N/A   Clear
1:53 AM 45.0 °F - 39.9 °F 82% 30.30 in 10.0 mi Calm Calm - N/A   Clear
2:53 AM 45.0 °F 43.5 °F 41.0 °F 86% 30.30 in 10.0 mi ENE 3.5 mph - N/A   Mostly Cloudy
3:53 AM 48.9 °F - 43.0 °F 80% 30.28 in 10.0 mi Calm Calm - N/A   Overcast
4:53 AM 50.0 °F - 44.1 °F 80% 30.29 in 10.0 mi ENE 3.5 mph - N/A   Overcast
5:53 AM 50.0 °F - 45.0 °F 83% 30.30 in 10.0 mi Calm Calm - N/A   Overcast
6:53 AM 50.0 °F - 46.0 °F 86% 30.31 in 10.0 mi NE 3.5 mph - N/A   Overcast
7:53 AM 51.1 °F - 46.0 °F 83% 30.33 in 10.0 mi ENE 4.6 mph - N/A   Overcast
8:53 AM 55.0 °F - 46.0 °F 72% 30.35 in 10.0 mi East 6.9 mph - N/A   Overcast
9:53 AM 57.9 °F - 46.0 °F 65% 30.36 in 10.0 mi East 6.9 mph - N/A   Overcast
10:53 AM 62.1 °F - 46.0 °F 56% 30.37 in 10.0 mi East 10.4 mph - N/A   Overcast
11:53 AM 64.0 °F - 46.9 °F 54% 30.37 in 10.0 mi East 6.9 mph - N/A   Overcast
12:53 PM 66.0 °F - 48.9 °F 54% 30.35 in 10.0 mi SE 4.6 mph - N/A   Overcast
1:53 PM 69.1 °F - 48.9 °F 49% 30.31 in 10.0 mi Variable 3.5 mph 17.3 mph N/A   Clear
2:53 PM 70.0 °F - 48.9 °F 47% 30.28 in 10.0 mi Variable 3.5 mph - N/A   Clear
3:53 PM 69.1 °F - 48.9 °F 49% 30.26 in 10.0 mi SSE 9.2 mph 17.3 mph N/A   Partly Cloudy
4:53 PM 69.1 °F - 52.0 °F 54% 30.26 in 10.0 mi South 10.4 mph - N/A   Overcast
5:53 PM 68.0 °F - 52.0 °F 56% 30.26 in 10.0 mi South 8.1 mph - N/A   Partly Cloudy
6:53 PM 64.0 °F - 53.1 °F 67% 30.27 in 10.0 mi South 8.1 mph - N/A   Clear
7:53 PM 60.1 °F - 53.1 °F 78% 30.28 in 10.0 mi South 4.6 mph - N/A   Clear
8:31 PM 59.0 °F - 53.6 °F 82% 30.26 in 10.0 mi SSE 4.6 mph - N/A   Clear
8:53 PM 57.0 °F - 53.1 °F 87% 30.29 in 10.0 mi SSE 4.6 mph - N/A   Clear
9:53 PM 57.0 °F - 53.1 °F 87% 30.30 in 10.0 mi SSE 5.8 mph - N/A   Clear
10:53 PM 53.1 °F - 50.0 °F 89% 30.31 in 10.0 mi SE 4.6 mph - N/A   Clear
11:53 PM 53.1 °F - 51.1 °F 93% 30.30 in 9.0 mi SE 4.6 mph - N/A   Clear